AFL102 UUEE-KJFK

Flight info

Callsign AFL102
Flight time N/A
Altitude 32000
Route TOKNU3E TOKNU T288 STAPA M869 SOSEB P607 NOTAR/N0487F320 Y168 DOHOR DCT NEBSI DCT TINKA/N0483F340 DCT VATEX/N0385F120 P609 NEDZA Z132 ULMUG M125 ZOL/N0485F340 P600 KLONN DCT DONIB N562 MIMKU DCT PIKIL/M084F350 NATA RIKAL/N0491F360 N572A TOPPS DCT ENE PARCH4
Aircraft B77W/H-SDE1E2E3FGHIJ2J3J4J5M1RWXY/LB1D1

Departure

Time N/A
Airport Sheremetyevo International Airport (UUEE)

Arrival

Time 2026-05-09 18:56
Airport John F. Kennedy International Airport (KJFK)
Time Latitude Longitude Altitude Speed Heading
2026-05-09 17:51 45.11403 -68.09397 36037 ft 425 kts 234°
2026-05-09 17:51 45.07430 -68.15595 36038 ft 425 kts 234°
2026-05-09 17:52 45.03455 -68.21784 36039 ft 425 kts 234°
2026-05-09 17:52 44.99471 -68.27973 36038 ft 425 kts 234°
2026-05-09 17:53 44.95486 -68.34148 36037 ft 425 kts 234°
2026-05-09 17:53 44.91502 -68.40308 36040 ft 425 kts 234°
2026-05-09 17:54 44.87516 -68.46457 36032 ft 425 kts 233°
2026-05-09 17:54 44.83528 -68.52596 36030 ft 424 kts 233°
2026-05-09 17:55 44.79539 -68.58723 36026 ft 424 kts 233°
2026-05-09 17:55 44.75552 -68.64832 36026 ft 423 kts 233°
2026-05-09 17:56 44.71563 -68.70934 36029 ft 423 kts 233°
2026-05-09 17:57 44.65607 -68.80017 36027 ft 423 kts 233°
2026-05-09 17:57 44.61615 -68.86089 36022 ft 423 kts 233°
2026-05-09 17:58 44.57618 -68.92154 36034 ft 423 kts 233°
2026-05-09 17:58 44.53620 -68.98209 36032 ft 423 kts 233°
2026-05-09 17:59 44.49622 -69.04249 36032 ft 423 kts 233°
2026-05-09 17:59 44.45624 -69.10278 36040 ft 422 kts 233°
2026-05-09 18:00 44.41621 -69.16300 36037 ft 422 kts 233°
2026-05-09 18:00 44.37615 -69.22315 36040 ft 422 kts 232°
2026-05-09 18:01 44.33608 -69.28318 36047 ft 422 kts 232°
2026-05-09 18:01 44.29603 -69.34304 36050 ft 422 kts 232°
2026-05-09 18:02 44.25616 -69.40252 36045 ft 422 kts 232°
2026-05-09 18:02 44.21604 -69.46223 36043 ft 422 kts 232°
2026-05-09 18:03 44.17595 -69.52176 36057 ft 421 kts 232°
2026-05-09 18:03 44.13581 -69.58127 36077 ft 421 kts 232°
2026-05-09 18:04 44.09573 -69.64055 36057 ft 421 kts 232°
2026-05-09 18:04 44.05561 -69.69976 36068 ft 420 kts 232°
2026-05-09 18:05 44.01552 -69.75879 36068 ft 420 kts 232°
2026-05-09 18:05 43.97547 -69.81766 36076 ft 419 kts 232°
2026-05-09 18:06 43.93536 -69.87649 36076 ft 420 kts 232°
2026-05-09 18:06 43.89519 -69.93527 36081 ft 420 kts 232°
2026-05-09 18:07 43.85500 -69.99397 36081 ft 420 kts 231°
2026-05-09 18:07 43.81482 -70.05253 36079 ft 419 kts 231°
2026-05-09 18:08 43.77458 -70.11105 36073 ft 419 kts 231°
2026-05-09 18:08 43.73431 -70.16949 36062 ft 420 kts 231°
2026-05-09 18:09 43.69429 -70.22745 36060 ft 420 kts 231°
2026-05-09 18:09 43.65399 -70.28570 36064 ft 419 kts 231°
2026-05-09 18:10 43.61361 -70.34395 36064 ft 420 kts 231°
2026-05-09 18:10 43.57319 -70.40213 36065 ft 420 kts 231°
2026-05-09 18:11 43.53275 -70.46023 36057 ft 420 kts 231°
2026-05-09 18:11 43.49229 -70.51825 36052 ft 420 kts 231°
2026-05-09 18:12 43.45182 -70.57616 36048 ft 420 kts 231°
2026-05-09 18:12 43.40518 -70.62519 36048 ft 435 kts 210°
2026-05-09 18:13 43.34772 -70.65300 36055 ft 439 kts 206°
2026-05-09 18:13 43.29034 -70.68035 36058 ft 440 kts 207°
2026-05-09 18:14 43.23262 -70.70845 36054 ft 440 kts 207°
2026-05-09 18:14 43.17486 -70.73677 36034 ft 441 kts 207°
2026-05-09 18:15 43.11708 -70.76506 36032 ft 441 kts 207°
2026-05-09 18:15 43.05937 -70.79324 36030 ft 440 kts 207°
2026-05-09 18:16 43.00166 -70.82136 36031 ft 440 kts 207°
2026-05-09 18:16 42.94398 -70.84942 36032 ft 440 kts 207°
2026-05-09 18:17 42.88636 -70.87739 36025 ft 439 kts 207°
2026-05-09 18:17 42.82870 -70.90533 36020 ft 439 kts 207°
2026-05-09 18:18 42.77106 -70.93317 36020 ft 440 kts 207°
2026-05-09 18:18 42.71343 -70.96094 36024 ft 440 kts 207°
2026-05-09 18:19 42.65571 -70.98871 36003 ft 440 kts 207°
2026-05-09 18:19 42.56941 -71.03015 36004 ft 440 kts 206°
2026-05-09 18:20 42.51131 -71.05798 36004 ft 441 kts 206°
2026-05-09 18:20 42.45382 -71.08546 36003 ft 441 kts 206°
2026-05-09 18:21 42.39594 -71.11308 36008 ft 442 kts 206°
2026-05-09 18:21 42.33793 -71.14070 36005 ft 442 kts 206°
2026-05-09 18:22 42.27982 -71.16832 35992 ft 443 kts 206°
2026-05-09 18:22 42.23150 -71.19124 35996 ft 443 kts 206°
2026-05-09 18:23 42.17330 -71.21880 35997 ft 443 kts 206°
2026-05-09 18:23 42.11499 -71.24636 35996 ft 444 kts 206°
2026-05-09 18:24 42.05671 -71.27385 35992 ft 444 kts 206°
2026-05-09 18:25 41.96929 -71.31498 35995 ft 444 kts 206°
2026-05-09 18:25 41.91096 -71.34237 35991 ft 444 kts 206°
2026-05-09 18:26 41.85265 -71.36969 35981 ft 444 kts 206°
2026-05-09 18:26 41.79430 -71.39699 35986 ft 444 kts 206°
2026-05-09 18:27 41.73779 -71.42849 35985 ft 436 kts 214°
2026-05-09 18:27 41.68684 -71.47125 35992 ft 430 kts 222°
2026-05-09 18:28 41.64115 -71.52154 35936 ft 428 kts 225°
2026-05-09 18:28 41.61811 -71.54763 35121 ft 439 kts 225°
2026-05-09 18:28 41.59487 -71.57385 34504 ft 436 kts 225°
2026-05-09 18:28 41.57181 -71.59969 33903 ft 430 kts 224°
2026-05-09 18:29 41.54896 -71.62517 33088 ft 427 kts 224°
2026-05-09 18:29 41.52634 -71.65031 31924 ft 419 kts 224°
2026-05-09 18:29 41.50380 -71.67536 30608 ft 419 kts 224°
2026-05-09 18:29 41.48199 -71.69950 29995 ft 402 kts 224°
2026-05-09 18:30 41.46075 -71.72299 29278 ft 389 kts 224°
2026-05-09 18:30 41.44028 -71.74564 28637 ft 378 kts 224°
2026-05-09 18:30 41.42026 -71.76781 28041 ft 373 kts 224°
2026-05-09 18:30 41.40021 -71.79006 27451 ft 379 kts 224°
2026-05-09 18:31 41.37952 -71.81303 26830 ft 396 kts 223°
2026-05-09 18:31 41.35799 -71.83685 26172 ft 403 kts 223°
2026-05-09 18:31 41.33661 -71.86038 25525 ft 393 kts 223°
2026-05-09 18:31 41.31594 -71.88310 24895 ft 379 kts 223°
2026-05-09 18:32 41.29596 -71.90505 24299 ft 366 kts 223°
2026-05-09 18:32 41.27667 -71.92626 23853 ft 354 kts 223°
2026-05-09 18:32 41.25748 -71.94739 23536 ft 366 kts 223°
2026-05-09 18:32 41.23742 -71.96947 23140 ft 382 kts 222°
2026-05-09 18:33 41.21689 -71.99201 22746 ft 382 kts 222°
2026-05-09 18:33 41.19635 -72.01450 22375 ft 384 kts 222°
2026-05-09 18:33 41.17568 -72.03714 22023 ft 388 kts 222°
2026-05-09 18:33 41.15479 -72.06001 21659 ft 390 kts 222°
2026-05-09 18:34 41.13401 -72.08274 21293 ft 383 kts 223°
2026-05-09 18:34 41.11553 -72.10752 20933 ft 376 kts 233°
2026-05-09 18:34 41.10084 -72.13544 20598 ft 372 kts 239°
2026-05-09 18:34 41.08838 -72.16537 20242 ft 368 kts 245°
2026-05-09 18:35 41.07929 -72.19645 19431 ft 358 kts 251°
2026-05-09 18:35 41.07167 -72.22752 18999 ft 352 kts 252°
2026-05-09 18:35 41.06421 -72.25892 18626 ft 363 kts 252°
2026-05-09 18:35 41.05653 -72.29109 18221 ft 368 kts 252°
2026-05-09 18:36 41.04879 -72.32319 17771 ft 364 kts 251°
2026-05-09 18:36 41.04105 -72.35484 17368 ft 359 kts 251°
2026-05-09 18:36 41.03335 -72.38606 17029 ft 353 kts 251°
2026-05-09 18:36 41.02573 -72.41673 16662 ft 350 kts 251°
2026-05-09 18:37 41.01810 -72.44731 16297 ft 348 kts 250°
2026-05-09 18:37 41.01053 -72.47764 15937 ft 347 kts 250°
2026-05-09 18:37 41.00293 -72.50797 15572 ft 346 kts 250°
2026-05-09 18:37 40.99547 -72.53772 15216 ft 345 kts 250°
2026-05-09 18:38 40.98791 -72.56784 14853 ft 344 kts 250°
2026-05-09 18:38 40.98036 -72.59787 14501 ft 343 kts 250°
2026-05-09 18:38 40.97307 -72.62691 14337 ft 317 kts 250°
2026-05-09 18:40 40.93095 -72.79023 12053 ft 247 kts 237°
2026-05-09 18:40 40.92028 -72.80768 11868 ft 247 kts 223°
2026-05-09 18:40 40.90665 -72.82222 11684 ft 256 kts 218°
2026-05-09 18:41 40.89208 -72.83609 11462 ft 258 kts 217°
2026-05-09 18:41 40.87751 -72.84975 11251 ft 256 kts 217°
2026-05-09 18:41 40.86310 -72.86328 11038 ft 252 kts 217°
2026-05-09 18:41 40.84893 -72.87666 10845 ft 249 kts 217°
2026-05-09 18:42 40.83490 -72.88997 10651 ft 247 kts 217°
2026-05-09 18:42 40.82101 -72.90318 10437 ft 245 kts 217°
2026-05-09 18:42 40.80725 -72.91630 10262 ft 243 kts 217°
2026-05-09 18:42 40.79368 -72.92926 10061 ft 239 kts 216°
2026-05-09 18:43 40.78052 -72.94223 9864 ft 232 kts 223°
2026-05-09 18:43 40.77191 -72.96002 9524 ft 237 kts 250°
2026-05-09 18:43 40.77025 -72.98199 9109 ft 245 kts 264°
2026-05-09 18:43 40.77087 -73.00455 8755 ft 246 kts 266°
2026-05-09 18:44 40.77185 -73.02706 8440 ft 245 kts 266°
2026-05-09 18:44 40.77288 -73.04949 8103 ft 245 kts 267°
2026-05-09 18:44 40.77392 -73.07189 7855 ft 245 kts 267°
2026-05-09 18:44 40.77498 -73.09402 7598 ft 239 kts 267°
2026-05-09 18:45 40.77608 -73.11593 7211 ft 240 kts 267°
2026-05-09 18:45 40.77719 -73.13803 6854 ft 241 kts 267°
2026-05-09 18:45 40.77821 -73.16002 6519 ft 240 kts 267°
2026-05-09 18:45 40.77920 -73.18197 6161 ft 239 kts 267°
2026-05-09 18:46 40.78017 -73.20371 5823 ft 234 kts 267°
2026-05-09 18:46 40.78113 -73.22469 5571 ft 224 kts 267°
2026-05-09 18:46 40.78208 -73.24481 5226 ft 216 kts 267°
2026-05-09 18:46 40.78296 -73.26417 4820 ft 212 kts 267°
2026-05-09 18:47 40.78380 -73.28377 4372 ft 211 kts 267°
2026-05-09 18:47 40.78454 -73.30288 4118 ft 213 kts 267°
2026-05-09 18:47 40.78523 -73.32267 4054 ft 216 kts 267°
2026-05-09 18:47 40.78591 -73.34271 4028 ft 217 kts 267°
2026-05-09 18:48 40.78660 -73.36250 4031 ft 222 kts 267°
2026-05-09 18:48 40.78735 -73.38306 4027 ft 224 kts 267°
2026-05-09 18:48 40.78804 -73.40353 4020 ft 223 kts 267°
2026-05-09 18:48 40.78876 -73.42392 4023 ft 222 kts 267°
2026-05-09 18:49 40.78953 -73.44423 4017 ft 221 kts 267°
2026-05-09 18:49 40.79033 -73.46446 4013 ft 221 kts 268°
2026-05-09 18:49 40.79106 -73.48470 4020 ft 220 kts 268°
2026-05-09 18:49 40.79179 -73.50495 4033 ft 221 kts 267°
2026-05-09 18:50 40.79255 -73.52532 4025 ft 224 kts 268°
2026-05-09 18:50 40.79329 -73.54583 4027 ft 224 kts 268°
2026-05-09 18:50 40.79403 -73.56640 4013 ft 225 kts 268°
2026-05-09 18:50 40.79473 -73.58671 4000 ft 218 kts 268°
2026-05-09 18:51 40.79320 -73.60550 3860 ft 197 kts 244°
2026-05-09 18:51 40.78679 -73.62072 3638 ft 184 kts 237°
2026-05-09 18:51 40.78021 -73.63479 3339 ft 178 kts 237°
2026-05-09 18:51 40.77366 -73.64841 3121 ft 173 kts 231°
2026-05-09 18:52 40.76445 -73.65850 3136 ft 175 kts 218°
2026-05-09 18:52 40.75455 -73.66822 3129 ft 181 kts 217°
2026-05-09 18:52 40.74381 -73.67745 2973 ft 186 kts 214°
2026-05-09 18:52 40.73274 -73.68623 2716 ft 187 kts 213°
2026-05-09 18:53 40.72148 -73.69504 2202 ft 185 kts 212°
2026-05-09 18:53 40.71090 -73.70334 1730 ft 171 kts 213°
2026-05-09 18:53 40.70093 -73.71117 1298 ft 161 kts 213°
2026-05-09 18:53 40.69181 -73.71834 1105 ft 145 kts 212°
2026-05-09 18:54 40.68366 -73.72473 904 ft 128 kts 214°
2026-05-09 18:54 40.67589 -73.73080 794 ft 139 kts 211°
2026-05-09 18:54 40.66741 -73.73730 574 ft 135 kts 212°
2026-05-09 18:54 40.65960 -73.74341 362 ft 128 kts 211°
2026-05-09 18:55 40.65171 -73.74956 220 ft 128 kts 212°
2026-05-09 18:55 40.64431 -73.75548 51 ft 124 kts 211°
2026-05-09 18:55 40.63758 -73.76084 28 ft 99 kts 211°
2026-05-09 18:55 40.63234 -73.76496 27 ft 77 kts 211°
2026-05-09 18:56 40.62973 -73.76793 27 ft 33 kts 237°
2026-05-09 18:56 40.62937 -73.76959 29 ft 6 kts 282°
2026-05-09 18:56 40.62977 -73.77073 30 ft 26 kts 300°
2026-05-09 18:56 40.63067 -73.77275 29 ft 26 kts 301°
2026-05-09 18:57 40.63152 -73.77461 27 ft 23 kts 300°
2026-05-09 18:57 40.63232 -73.77641 28 ft 23 kts 301°
2026-05-09 18:57 40.63290 -73.77764 28 ft 14 kts 302°
2026-05-09 18:57 40.63323 -73.77835 20 ft 9 kts 301°
2026-05-09 18:58 40.63355 -73.77906 32 ft 9 kts 301°
2026-05-09 18:58 40.63386 -73.77980 29 ft 9 kts 298°
2026-05-09 18:58 40.63416 -73.78054 29 ft 9 kts 299°
2026-05-09 18:58 40.63447 -73.78125 30 ft 9 kts 299°
2026-05-09 18:59 40.63479 -73.78198 30 ft 9 kts 300°
2026-05-09 18:59 40.63513 -73.78269 29 ft 10 kts 303°
2026-05-09 18:59 40.63551 -73.78348 31 ft 11 kts 300°
2026-05-09 18:59 40.63610 -73.78483 25 ft 19 kts 301°
2026-05-09 19:00 40.63679 -73.78635 31 ft 19 kts 301°
2026-05-09 19:00 40.63817 -73.78939 31 ft 19 kts 301°
2026-05-09 19:00 40.63886 -73.79091 30 ft 19 kts 300°
2026-05-09 19:01 40.63954 -73.79243 31 ft 19 kts 301°
2026-05-09 19:01 40.64024 -73.79395 31 ft 19 kts 301°
2026-05-09 19:01 40.64124 -73.79500 28 ft 19 kts 348°
2026-05-09 19:01 40.64201 -73.79466 27 ft 9 kts 66°
2026-05-09 19:02 40.64235 -73.79399 28 ft 9 kts 50°
2026-05-09 19:02 40.64280 -73.79343 29 ft 9 kts 41°
2026-05-09 19:02 40.64324 -73.79286 30 ft 3 kts 53°
2026-05-09 19:02 40.64332 -73.79260 25 ft 9 kts 66°
2026-05-09 19:03 40.64354 -73.79211 30 ft 2 kts 57°
2026-05-09 19:03 40.64357 -73.79206 30 ft 3 kts 57°
2026-05-09 19:03 40.64358 -73.79203 30 ft 0 kts 57°